QPF
0.00 0.00 0.00 0.00 0.00 0.00 0.00 0.00 0.00 0.00 0.00 0.00 0.00 0.00 0.00 0.00 0.00 0.00 0.00 0.00 0.00 0.00 0.00 0.00 0.00 0.00 0.00 0.00 0.00 0.00 0.00 0.00 0.00 0.00 0.00 0.00 0.00 0.00 0.00 0.00 0.00 0.00 0.00 0.00 0.00
0.00 0.00 0.00 0.00 0.00 0.00 0.00 0.00 0.00 0.00 0.00 0.00 0.00 0.00 0.00 0.00 0.00 0.00 0.00 0.00 0.00 0.00 0.00 0.00 0.00 0.00 0.00 0.00 0.00 0.00 0.00 0.00 0.00 0.00 0.00 0.00 0.00 0.00 0.00 0.00 0.00 0.00 0.00 0.00 0.00
0.00 0.00 0.00 0.00 0.00 0.00 0.00 0.00 0.00 0.00 0.00 0.00 0.00 0.00 0.00 0.00 0.00 0.00 0.00 0.00 0.00 0.00 0.00 0.00 0.00 0.00 0.00 0.00 0.00 0.00 0.00 0.00 0.00 0.00 0.00 0.00 0.00 0.00 0.00 0.00 0.00 0.00 0.00 0.00 0.00
0.00 0.00 0.00 0.00 0.00 0.00 0.00 0.00 0.00 0.00 0.00 0.00 0.00 0.00 0.00 0.00 0.00 0.00 0.00 0.00 0.00 0.00 0.00 0.00 0.00 0.00 0.00 0.00 0.00 0.00 0.00 0.00 0.00 0.00 0.00 0.00 0.00 0.00 0.00 0.00 0.00 0.00 0.00 0.00 0.00
0.00 0.00 0.00 0.00 0.00 0.00 0.00 0.00 0.00 0.00 0.00 0.00 0.00 0.00 0.00 0.00 0.00 0.00 0.00 0.00 0.00 0.00 0.00 0.00 0.00 0.00 0.00 0.00 0.00 0.00 0.00 0.00 0.00 0.00 0.00 0.00 0.00 0.00 0.00 0.00 0.00 0.00 0.00 0.00 0.00
0.00 0.00 0.00 0.00 0.00 0.00 0.00 0.00 0.00 0.00 0.00 0.00 0.00 0.00 0.00 0.00 0.00 0.00 0.00 0.00 0.00 0.00 0.00 0.00 0.00 0.00 0.00 0.00 0.00 0.00 0.00 0.00 0.00 0.00 0.00 0.00 0.00 0.00 0.00 0.00 0.00 0.00 0.00 0.00 0.00
0.00 0.00 0.00 0.00 0.00 0.00 0.00 0.00 0.00 0.00 0.00 0.00 0.00 0.00 0.00 0.00 0.00 0.00 0.00 0.00 0.00 0.00 0.00 0.00 0.00 0.00 0.00 0.00 0.00 0.00 0.00 0.00 0.00 0.00 0.00 0.00 0.00 0.00 0.00 0.00 0.00 0.00 0.00 0.00 0.00
0.00 0.00 0.00 0.00 0.00 0.00 0.00 0.00 0.00 0.00 0.00 0.00 0.00 0.00 0.00 0.00 0.00 0.00 0.00 0.00 0.00 0.00 0.00 0.00 0.00 0.00 0.00 0.00 0.00 0.00 0.00 0.00 0.00 0.00 0.00 0.00 0.00 0.00 0.00 0.00 0.00 0.00 0.00 0.00 0.00
0.00 0.00 0.00 0.00 0.00 0.00 0.00 0.00 0.00 0.00 0.00 0.00 0.00 0.00 0.00 0.00 0.00 0.00 0.00 0.00 0.00 0.00 0.00 0.00 0.00 0.00 0.00 0.00 0.00 0.00 0.00 0.00 0.00 0.00 0.00 0.00 0.00 0.00 0.00 0.00 0.00 0.00 0.00 0.00 0.00
0.00 0.00 0.00 0.00 0.00 0.00 0.00 0.00 0.00 0.00 0.00 0.00 0.00 0.00 0.00 0.00 0.00 0.00 0.00 0.00 0.00 0.00 0.00 0.00 0.00 0.00 0.00 0.00 0.00 0.00 0.00 0.00 0.00 0.00 0.00 0.00 0.00 0.00 0.00 0.00 0.00 0.00 0.00 0.00 0.00
0.00 0.00 0.00 0.00 0.00 0.00 0.00 0.00 0.00 0.00 0.00 0.00 0.00 0.00 0.00 0.00 0.00 0.00 0.00 0.00 0.00 0.00 0.00 0.00 0.00 0.00 0.00 0.00 0.00 0.00 0.00 0.00 0.00 0.00 0.00 0.00 0.00 0.00 0.00 0.00 0.00 0.00 0.00 0.00 0.00
0.00 0.00 0.00 0.00 0.00 0.00 0.00 0.00 0.00 0.00 0.00 0.00 0.00 0.00 0.00 0.00 0.00 0.00 0.00 0.00 0.00 0.00 0.00 0.00 0.00 0.00 0.00 0.00 0.00 0.00 0.00 0.00 0.00 0.00 0.00 0.00 0.00 0.00 0.01 0.00 0.01 0.01 0.00 0.00 0.00
0.00 0.00 0.00 0.00 0.00 0.00 0.00 0.00 0.00 0.00 0.00 0.00 0.00 0.00 0.00 0.00 0.00 0.00 0.00 0.00 0.00 0.00 0.00 0.00 0.00 0.00 0.00 0.00 0.00 0.00 0.00 0.00 0.00 0.00 0.00 0.00 0.00 0.00 0.00 0.02 0.05 0.04 0.00 0.00 0.00
0.00 0.00 0.00 0.00 0.00 0.00 0.00 0.00 0.00 0.00 0.00 0.00 0.00 0.00 0.00 0.00 0.00 0.00 0.00 0.00 0.00 0.00 0.00 0.00 0.00 0.00 0.00 0.00 0.00 0.00 0.00 0.00 0.00 0.00 0.00 0.00 0.00 0.00 0.00 0.01 0.02 0.01 0.00 0.00 0.00
0.00 0.00 0.00 0.00 0.00 0.00 0.00 0.00 0.00 0.00 0.00 0.00 0.00 0.00 0.00 0.00 0.00 0.00 0.00 0.00 0.00 0.00 0.00 0.00 0.00 0.00 0.00 0.00 0.00 0.00 0.00 0.00 0.00 0.00 0.00 0.00 0.00 0.00 0.00 0.00 0.00 0.00 0.00 0.00 0.00
0.00 0.00 0.00 0.00 0.00 0.00 0.00 0.00 0.00 0.00 0.00 0.00 0.00 0.00 0.00 0.00 0.00 0.00 0.00 0.00 0.00 0.00 0.00 0.00 0.00 0.00 0.00 0.00 0.00 0.00 0.00 0.00 0.00 0.00 0.00 0.00 0.00 0.00 0.00 0.00 0.00 0.00 0.00 0.00 0.00
0.00 0.00 0.00 0.00 0.00 0.00 0.00 0.00 0.00 0.00 0.00 0.00 0.00 0.00 0.00 0.00 0.00 0.00 0.00 0.00 0.00 0.00 0.00 0.00 0.00 0.00 0.00 0.00 0.00 0.00 0.00 0.00 0.00 0.00 0.00 0.00 0.00 0.00 0.00 0.00 0.00 0.00 0.00 0.00 0.01
0.00 0.00 0.00 0.00 0.00 0.00 0.00 0.00 0.00 0.00 0.00 0.00 0.00 0.00 0.00 0.00 0.00 0.00 0.00 0.00 0.00 0.00 0.00 0.00 0.00 0.00 0.00 0.00 0.00 0.00 0.00 0.00 0.00 0.00 0.00 0.00 0.00 0.00 0.00 0.00 0.00 0.00 0.00 0.00 0.01
0.00 0.00 0.00 0.00 0.00 0.00 0.00 0.00 0.00 0.00 0.00 0.00 0.00 0.00 0.00 0.00 0.00 0.00 0.00 0.00 0.00 0.00 0.00 0.00 0.00 0.00 0.00 0.00 0.00 0.00 0.00 0.00 0.00 0.00 0.00 0.00 0.00 0.00 0.00 0.00 0.00 0.00 0.00 0.00 0.00
0.00 0.00 0.00 0.00 0.00 0.00 0.00 0.00 0.00 0.00 0.00 0.00 0.00 0.01 0.00 0.00 0.00 0.00 0.00 0.00 0.00 0.00 0.00 0.00 0.00 0.00 0.00 0.00 0.00 0.00 0.00 0.00 0.00 0.00 0.00 0.00 0.00 0.00 0.00 0.00 0.00 0.00 0.00 0.00 0.00
0.00 0.00 0.00 0.00 0.00 0.00 0.00 0.00 0.00 0.00 0.00 0.00 0.00 0.01 0.02 0.00 0.00 0.00 0.00 0.00 0.00 0.00 0.00 0.00 0.00 0.00 0.00 0.00 0.00 0.00 0.00 0.00 0.00 0.00 0.00 0.00 0.00 0.00 0.00 0.00 0.00 0.00 0.00 0.00 0.00
0.00 0.00 0.00 0.00 0.00 0.00 0.00 0.00 0.00 0.00 0.00 0.00 0.00 0.00 0.01 0.02 0.01 0.01 0.00 0.01 0.00 0.00 0.00 0.00 0.00 0.00 0.00 0.00 0.00 0.00 0.00 0.00 0.00 0.00 0.00 0.00 0.00 0.00 0.00 0.00 0.00 0.00 0.00 0.00 0.00
0.00 0.00 0.00 0.00 0.00 0.00 0.00 0.00 0.00 0.00 0.00 0.00 0.00 0.00 0.00 0.01 0.02 0.02 0.02 0.01 0.00 0.00 0.00 0.00 0.00 0.00 0.00 0.00 0.00 0.00 0.00 0.00 0.00 0.00 0.00 0.00 0.00 0.00 0.00 0.00 0.00 0.00 0.00 0.00 0.00
0.00 0.00 0.01 0.01 0.00 0.00 0.01 0.00 0.00 0.00 0.00 0.00 0.00 0.00 0.00 0.00 0.00 0.00 0.00 0.00 0.00 0.00 0.00 0.00 0.00 0.00 0.00 0.00 0.00 0.00 0.00 0.00 0.00 0.00 0.00 0.00 0.00 0.00 0.00 0.00 0.00 0.00 0.00 0.00 0.00
0.00 0.01 0.00 0.02 0.02 0.00 0.00 0.00 0.00 0.00 0.01 0.01 0.00 0.00 0.00 0.00 0.00 0.00 0.00 0.00 0.00 0.00 0.00 0.00 0.00 0.00 0.00 0.00 0.00 0.00 0.00 0.00 0.00 0.00 0.00 0.00 0.00 0.00 0.00 0.00 0.00 0.00 0.00 0.00 0.00
0.01 0.01 0.01 0.01 0.01 0.00 0.00 0.00 0.00 0.00 0.00 0.00 0.00 0.00 0.01 0.00 0.00 0.00 0.00 0.00 0.00 0.00 0.00 0.00 0.00 0.00 0.00 0.00 0.00 0.00 0.00 0.00 0.00 0.00 0.00 0.00 0.00 0.00 0.00 0.00 0.00 0.00 0.00 0.00 0.00
0.00 0.00 0.00 0.00 0.00 0.00 0.00 0.00 0.00 0.00 0.00 0.00 0.00 0.00 0.01 0.00 0.00 0.00 0.00 0.00 0.00 0.00 0.00 0.00 0.00 0.00 0.00 0.00 0.00 0.00 0.00 0.00 0.00 0.00 0.00 0.00 0.00 0.00 0.00 0.00 0.00 0.00 0.00 0.00 0.00
MSLP
1016.29 1015.92 1015.61 1015.35 1014.99 1014.69 1014.43 1014.33 1014.18 1014.01 1013.86 1013.74 1013.73 1013.56 1013.54 1013.56 1013.44 1013.27 1011.86 1009.16 1009.43 1009.75 1010.18 1010.69 1010.94 1011.02 1011.16 1011.14 1011.28 1011.15 1010.07 1008.67 1008.30 1008.23 1007.58 1007.76 1007.48 1007.46 1007.04 1006.92 1007.19 1007.77 1008.52 1009.24 1011.09
1016.21 1015.84 1015.46 1015.13 1014.79 1014.43 1014.24 1014.05 1013.93 1013.84 1013.74 1013.62 1013.62 1013.50 1013.46 1013.35 1013.04 1011.45 1008.29 1008.62 1009.00 1009.18 1009.61 1009.74 1010.28 1010.65 1010.77 1010.82 1010.91 1010.27 1009.32 1008.51 1008.37 1008.01 1007.64 1007.76 1007.69 1007.44 1007.28 1007.07 1007.53 1008.54 1009.79 1010.48 1011.36
1016.08 1015.70 1015.34 1014.97 1014.65 1014.37 1014.08 1013.90 1013.77 1013.64 1013.56 1013.48 1013.47 1013.44 1013.39 1013.14 1012.00 1007.96 1006.96 1007.96 1008.54 1008.69 1008.93 1009.21 1009.82 1010.02 1010.29 1010.63 1010.46 1009.88 1008.68 1008.83 1008.41 1008.25 1008.17 1007.86 1007.63 1007.56 1007.13 1006.88 1007.25 1007.52 1009.53 1010.73 1011.33
1016.04 1015.61 1015.20 1014.83 1014.50 1014.23 1013.92 1013.70 1013.56 1013.44 1013.36 1013.30 1013.38 1013.33 1013.20 1012.91 1010.13 1006.89 1006.50 1007.20 1008.16 1008.38 1008.73 1009.13 1009.67 1009.75 1009.78 1009.80 1009.83 1009.67 1009.10 1008.84 1008.26 1008.36 1008.17 1007.74 1007.77 1007.42 1006.91 1006.74 1007.26 1008.28 1008.93 1009.85 1010.88
1016.01 1015.57 1015.12 1014.70 1014.30 1014.01 1013.76 1013.48 1013.32 1013.26 1013.24 1013.24 1013.22 1013.18 1012.94 1011.66 1008.43 1007.11 1007.03 1007.48 1008.21 1008.21 1008.08 1008.27 1008.93 1009.24 1009.10 1009.34 1009.65 1009.36 1008.80 1008.41 1008.31 1008.06 1008.06 1007.98 1007.53 1007.56 1006.92 1006.91 1007.48 1008.36 1009.76 1009.91 1010.73
1016.00 1015.55 1015.04 1014.55 1014.07 1013.68 1013.46 1013.25 1013.08 1013.00 1012.97 1012.90 1012.99 1012.98 1012.31 1009.95 1006.90 1007.07 1007.27 1007.67 1007.47 1007.75 1008.07 1008.14 1008.45 1008.66 1008.89 1008.90 1008.84 1008.44 1008.22 1007.97 1007.87 1007.71 1007.83 1007.47 1007.14 1007.56 1007.18 1007.35 1007.88 1008.45 1009.41 1010.09 1010.67
1015.88 1015.36 1014.85 1014.35 1013.83 1013.39 1013.12 1012.99 1012.82 1012.78 1012.72 1012.65 1012.79 1012.58 1011.34 1007.77 1006.72 1007.09 1007.42 1007.64 1007.74 1007.46 1007.59 1008.03 1008.10 1008.37 1008.54 1008.39 1008.27 1008.04 1007.97 1007.77 1007.31 1007.23 1007.20 1007.12 1007.03 1006.75 1007.21 1007.63 1008.08 1008.95 1009.89 1010.43 1011.15
1015.59 1015.10 1014.60 1014.08 1013.56 1013.11 1012.81 1012.68 1012.59 1012.57 1012.53 1012.60 1012.70 1012.29 1009.39 1006.99 1006.98 1007.14 1007.38 1007.76 1008.12 1007.75 1007.75 1008.10 1008.16 1008.23 1008.22 1008.07 1008.09 1007.86 1007.78 1006.95 1005.98 1006.53 1006.65 1006.80 1006.26 1006.97 1007.35 1007.71 1008.36 1009.29 1010.04 1010.65 1011.59
1015.36 1014.86 1014.35 1013.84 1013.32 1012.81 1012.44 1012.22 1012.13 1012.23 1012.34 1012.52 1012.53 1011.70 1007.92 1006.73 1006.65 1006.20 1006.49 1006.87 1007.76 1007.90 1007.86 1007.97 1008.28 1008.24 1008.08 1007.68 1007.41 1007.29 1006.61 1006.38 1005.94 1006.36 1006.36 1006.74 1006.51 1007.46 1007.90 1008.22 1008.85 1009.59 1010.26 1011.31 1012.39
1015.09 1014.57 1014.10 1013.61 1013.12 1012.66 1012.26 1011.62 1011.67 1011.82 1012.13 1012.30 1011.74 1010.91 1006.89 1005.14 1005.11 1005.73 1006.28 1006.62 1007.09 1007.60 1007.73 1007.83 1007.89 1007.69 1007.63 1007.11 1006.17 1006.20 1006.11 1005.92 1005.67 1006.27 1006.31 1006.64 1007.17 1007.91 1008.31 1008.72 1009.45 1010.23 1011.07 1012.05 1012.96
1014.82 1014.27 1013.78 1013.31 1012.92 1012.63 1012.38 1011.97 1011.83 1011.45 1011.05 1008.57 1007.40 1006.27 1004.76 1004.47 1004.48 1005.36 1005.60 1006.14 1006.63 1006.97 1006.80 1007.26 1006.97 1006.38 1006.50 1006.62 1006.29 1005.94 1005.71 1005.56 1005.71 1006.07 1006.21 1006.55 1007.77 1008.71 1009.29 1009.49 1010.06 1010.90 1011.82 1012.67 1013.64
1014.44 1013.94 1013.43 1012.92 1012.57 1012.43 1012.45 1011.37 1008.51 1007.95 1007.57 1006.56 1006.47 1005.52 1004.57 1004.02 1004.20 1005.04 1005.28 1004.97 1005.77 1005.87 1006.36 1006.80 1006.01 1005.96 1006.18 1006.39 1006.23 1005.76 1005.45 1005.34 1006.02 1006.40 1006.52 1007.32 1008.46 1009.52 1009.95 1010.19 1010.64 1011.41 1012.07 1012.96 1014.01
1014.04 1013.53 1013.02 1012.38 1011.83 1011.75 1011.44 1009.85 1007.97 1007.72 1006.75 1004.96 1004.74 1004.10 1003.42 1003.70 1003.44 1004.19 1004.52 1004.35 1004.72 1005.19 1005.21 1005.13 1005.03 1005.25 1005.79 1005.93 1005.81 1005.30 1005.03 1005.16 1005.59 1006.60 1007.16 1007.45 1008.64 1009.47 1010.47 1010.99 1011.47 1012.13 1012.60 1013.29 1013.94
1013.60 1013.14 1012.68 1011.99 1011.71 1011.61 1010.23 1008.04 1008.07 1008.05 1006.29 1003.95 1003.32 1002.06 1002.47 1002.37 1002.66 1002.65 1003.23 1003.40 1003.99 1004.14 1004.79 1004.68 1004.55 1004.77 1005.09 1005.04 1005.07 1004.68 1004.64 1004.98 1005.44 1005.86 1006.22 1007.26 1007.52 1009.06 1009.86 1010.63 1011.28 1011.90 1012.55 1013.13 1014.02
1013.08 1012.67 1012.43 1012.40 1011.86 1010.91 1008.26 1007.94 1007.41 1007.20 1005.07 1002.29 1001.90 1001.33 1001.42 1001.25 1001.28 1002.54 1002.61 1002.69 1002.88 1003.50 1004.15 1003.61 1003.80 1004.10 1004.23 1003.98 1004.63 1004.38 1004.52 1004.84 1005.27 1005.61 1005.83 1006.77 1006.84 1007.95 1009.20 1009.60 1010.18 1010.93 1011.90 1012.66 1013.52
1012.37 1011.88 1011.80 1011.16 1010.93 1008.65 1008.32 1008.08 1007.39 1006.21 1003.38 1001.29 1000.80 1000.88 1001.17 1000.76 1000.96 1001.78 1002.14 1002.11 1002.57 1003.10 1003.58 1003.35 1003.48 1003.38 1003.30 1003.80 1003.99 1004.62 1004.84 1005.27 1005.71 1005.61 1005.45 1006.49 1006.75 1007.17 1007.74 1007.72 1008.62 1010.09 1011.28 1012.20 1013.33
1011.35 1010.63 1010.94 1010.47 1008.71 1007.79 1008.22 1007.97 1006.60 1004.34 1002.20 1000.95 1000.37 1000.30 1000.26 1000.35 1000.69 1000.83 1001.38 1001.84 1002.13 1002.74 1002.99 1003.22 1002.98 1003.00 1003.17 1003.59 1004.54 1004.26 1004.53 1004.93 1005.30 1005.26 1005.77 1006.87 1006.82 1006.32 1006.78 1007.46 1007.81 1008.73 1010.37 1011.90 1013.17
1010.15 1009.09 1007.91 1007.47 1007.55 1007.81 1007.51 1006.77 1004.51 1002.49 1001.47 1000.72 1000.38 1000.24 1000.28 1000.26 1000.47 1000.71 1001.11 1001.60 1002.20 1002.34 1002.51 1002.78 1002.78 1002.67 1002.80 1002.84 1003.36 1004.42 1004.62 1004.40 1004.83 1005.53 1006.12 1007.12 1006.53 1006.41 1007.27 1007.95 1008.52 1009.05 1010.07 1011.50 1012.77
1009.09 1007.78 1007.32 1006.37 1007.08 1007.61 1006.36 1004.75 1002.64 1001.64 1000.90 1000.60 1000.61 1000.37 1000.48 1000.45 1000.44 1000.81 1000.94 1001.19 1001.62 1002.10 1002.04 1002.36 1002.59 1002.86 1003.01 1003.07 1003.43 1004.67 1005.13 1006.02 1005.91 1007.25 1006.65 1006.96 1007.17 1007.19 1007.58 1007.92 1008.64 1009.17 1010.09 1011.17 1012.45
1008.80 1007.79 1006.40 1006.06 1006.43 1006.59 1005.09 1003.20 1001.98 1001.10 1000.55 1000.54 1000.72 1001.13 1000.87 1000.78 1000.78 1000.84 1001.21 1001.46 1001.48 1001.88 1002.07 1002.60 1002.75 1003.37 1003.91 1003.77 1004.37 1004.31 1005.38 1006.03 1006.05 1006.53 1006.70 1007.17 1007.42 1006.98 1007.65 1008.04 1008.93 1009.45 1009.98 1010.93 1012.25
1008.51 1007.16 1005.97 1006.05 1006.04 1005.29 1003.59 1002.59 1001.65 1000.88 1000.39 1000.65 1001.10 1001.49 1001.59 1001.31 1001.16 1001.28 1001.58 1001.98 1001.91 1002.25 1002.50 1002.72 1003.39 1004.14 1004.14 1004.21 1004.23 1005.30 1005.47 1006.42 1006.82 1007.00 1006.58 1007.23 1007.77 1008.76 1008.86 1009.04 1009.10 1009.44 1010.24 1011.03 1011.82
1008.24 1006.44 1006.16 1006.12 1005.20 1004.45 1003.18 1002.26 1001.32 1000.85 1000.76 1001.03 1001.33 1001.78 1001.94 1002.16 1002.02 1001.79 1002.02 1002.10 1002.23 1002.38 1002.92 1003.88 1003.94 1004.26 1004.68 1005.09 1005.18 1005.06 1005.32 1005.58 1006.10 1007.42 1007.93 1008.01 1008.77 1010.08 1010.39 1010.45 1010.33 1010.27 1010.60 1011.05 1011.73
1008.28 1006.72 1005.80 1005.63 1004.56 1004.07 1003.26 1002.28 1001.56 1001.11 1001.08 1001.37 1001.59 1001.91 1002.29 1002.54 1002.80 1002.81 1002.84 1003.07 1002.81 1003.01 1003.65 1004.11 1004.96 1005.26 1005.52 1005.84 1005.73 1005.72 1006.40 1006.66 1006.86 1007.10 1007.69 1008.13 1009.40 1010.84 1011.28 1011.47 1011.60 1011.43 1011.38 1011.51 1011.90
1008.22 1006.76 1005.91 1005.34 1005.29 1004.40 1003.79 1003.07 1002.09 1001.73 1001.64 1001.80 1001.97 1002.16 1002.37 1002.60 1002.81 1003.04 1003.31 1003.53 1003.37 1004.03 1004.09 1004.53 1005.42 1006.12 1006.09 1005.61 1005.63 1006.45 1006.95 1007.18 1006.91 1007.37 1008.16 1008.76 1009.89 1011.30 1012.22 1012.54 1012.75 1012.68 1012.37 1012.00 1012.21
1008.45 1008.81 1008.42 1006.94 1005.87 1005.19 1004.31 1003.82 1002.81 1002.46 1002.44 1002.54 1002.46 1002.44 1002.70 1003.13 1003.24 1003.31 1003.44 1003.84 1004.12 1004.49 1004.63 1005.25 1005.64 1005.91 1006.38 1006.70 1006.57 1006.88 1007.53 1007.88 1007.77 1008.19 1008.28 1009.21 1010.43 1012.39 1013.47 1013.73 1013.95 1013.97 1013.55 1013.16 1013.16
1009.99 1009.95 1008.91 1007.80 1006.46 1005.76 1005.26 1004.99 1004.01 1003.60 1003.20 1003.03 1003.00 1003.49 1003.51 1003.81 1003.93 1003.77 1003.74 1003.91 1003.87 1004.42 1004.69 1005.36 1006.29 1006.13 1007.20 1007.56 1007.53 1007.96 1008.85 1009.09 1009.24 1009.55 1009.76 1010.61 1012.03 1013.67 1014.38 1014.50 1014.54 1014.72 1014.47 1014.21 1014.18
1011.51 1010.82 1010.16 1008.91 1008.20 1007.39 1007.07 1006.08 1005.32 1004.40 1004.41 1004.30 1004.03 1004.07 1004.53 1005.03 1004.70 1004.69 1004.66 1004.79 1004.81 1004.79 1005.51 1005.99 1006.92 1007.60 1008.17 1008.73 1008.85 1009.58 1010.60 1010.75 1011.02 1011.41 1011.76 1012.08 1013.58 1014.58 1014.83 1014.92 1015.12 1015.24 1015.37 1015.29 1015.09
Thickness
5679 5680 5681 5683 5686 5689 5692 5693 5695 5696 5698 5699 5699 5702 5703 5706 5712 5720 5736 5757 5759 5765 5762 5760 5761 5762 5764 5762 5765 5765 5758 5763 5768 5763 5776 5786 5786 5803 5818 5814 5819 5822 5818 5819 5806
5675 5676 5677 5679 5681 5685 5687 5689 5691 5692 5693 5694 5695 5695 5696 5699 5705 5721 5753 5755 5756 5761 5756 5754 5748 5752 5750 5754 5757 5760 5758 5766 5775 5780 5777 5777 5781 5792 5799 5803 5807 5806 5805 5806 5799
5671 5672 5673 5675 5677 5678 5681 5683 5685 5687 5688 5689 5690 5690 5691 5693 5705 5739 5755 5752 5753 5756 5755 5753 5748 5748 5743 5746 5750 5757 5762 5764 5769 5774 5774 5771 5778 5790 5794 5795 5808 5810 5798 5798 5794
5666 5668 5670 5671 5672 5674 5676 5678 5679 5681 5683 5685 5684 5685 5686 5689 5703 5741 5752 5752 5749 5750 5748 5742 5737 5731 5734 5735 5748 5745 5759 5761 5769 5768 5767 5768 5776 5779 5794 5803 5813 5808 5806 5804 5796
5661 5662 5664 5667 5669 5670 5672 5674 5675 5676 5678 5679 5680 5681 5683 5693 5709 5733 5739 5742 5741 5744 5742 5739 5729 5727 5726 5733 5736 5739 5753 5760 5762 5764 5763 5767 5769 5772 5789 5805 5808 5803 5796 5800 5795
5655 5656 5658 5661 5664 5666 5668 5669 5671 5672 5673 5675 5675 5676 5682 5688 5724 5727 5730 5732 5738 5738 5735 5737 5729 5731 5725 5728 5733 5746 5749 5754 5757 5760 5760 5763 5769 5771 5786 5797 5795 5796 5794 5795 5792
5649 5651 5653 5656 5659 5662 5664 5665 5667 5668 5669 5670 5669 5673 5681 5704 5722 5723 5724 5724 5730 5735 5729 5733 5735 5728 5727 5725 5739 5743 5736 5744 5754 5759 5760 5765 5758 5768 5784 5789 5786 5785 5786 5788 5785
5644 5646 5648 5651 5655 5658 5660 5662 5662 5663 5664 5664 5664 5668 5687 5715 5715 5715 5718 5716 5721 5728 5728 5730 5732 5727 5725 5734 5730 5728 5731 5731 5761 5758 5762 5760 5755 5766 5781 5782 5779 5779 5780 5781 5778
5639 5641 5643 5646 5650 5654 5657 5659 5660 5660 5659 5657 5658 5664 5690 5711 5707 5717 5720 5713 5712 5717 5722 5726 5723 5718 5721 5719 5718 5721 5721 5728 5746 5752 5753 5751 5755 5759 5772 5774 5772 5773 5774 5770 5765
5633 5635 5638 5641 5644 5648 5651 5657 5657 5656 5654 5652 5657 5663 5698 5710 5717 5714 5716 5714 5709 5708 5708 5710 5710 5710 5710 5714 5707 5717 5721 5731 5736 5740 5747 5744 5745 5753 5763 5766 5763 5763 5763 5759 5755
5626 5629 5633 5636 5639 5641 5645 5649 5654 5657 5653 5681 5690 5697 5708 5716 5720 5709 5713 5707 5705 5703 5697 5704 5702 5703 5711 5715 5721 5725 5725 5726 5734 5742 5744 5747 5737 5739 5747 5755 5753 5754 5752 5748 5742
5622 5624 5627 5631 5633 5636 5637 5647 5675 5677 5676 5683 5684 5689 5701 5712 5702 5701 5711 5702 5696 5693 5698 5695 5698 5712 5715 5712 5712 5718 5719 5724 5723 5730 5738 5732 5724 5727 5735 5742 5748 5745 5744 5741 5736
5614 5618 5622 5627 5632 5633 5638 5651 5669 5670 5672 5689 5688 5692 5701 5705 5701 5696 5705 5703 5696 5691 5700 5699 5708 5714 5706 5704 5704 5716 5718 5719 5724 5721 5724 5727 5713 5717 5720 5727 5732 5735 5736 5733 5733
5606 5611 5615 5620 5628 5625 5639 5660 5661 5659 5663 5684 5687 5701 5704 5708 5697 5715 5715 5709 5697 5695 5695 5699 5712 5706 5705 5708 5713 5709 5730 5726 5722 5720 5711 5723 5710 5708 5716 5717 5722 5726 5728 5729 5725
5594 5600 5606 5607 5615 5621 5653 5652 5658 5659 5639 5691 5690 5712 5707 5707 5710 5700 5717 5710 5697 5697 5698 5701 5704 5702 5701 5716 5718 5719 5727 5724 5722 5717 5720 5713 5718 5718 5710 5714 5722 5727 5727 5729 5726
5582 5589 5597 5607 5610 5632 5639 5642 5650 5645 5638 5683 5696 5691 5691 5702 5704 5701 5703 5715 5712 5698 5696 5703 5714 5715 5719 5716 5724 5718 5716 5711 5708 5715 5707 5704 5711 5711 5714 5731 5735 5730 5727 5726 5720
5572 5582 5589 5598 5619 5629 5630 5638 5635 5635 5675 5678 5684 5693 5695 5693 5693 5700 5694 5690 5688 5675 5680 5694 5704 5717 5720 5708 5710 5716 5711 5695 5692 5697 5697 5690 5702 5723 5731 5735 5741 5737 5728 5721 5714
5563 5580 5598 5612 5615 5617 5629 5634 5630 5659 5664 5684 5686 5689 5683 5692 5692 5694 5690 5684 5692 5694 5686 5679 5681 5709 5721 5722 5715 5706 5709 5703 5677 5684 5692 5686 5696 5721 5722 5724 5726 5730 5728 5719 5711
5556 5576 5590 5609 5609 5609 5630 5628 5647 5658 5672 5675 5678 5676 5677 5686 5691 5689 5690 5692 5699 5698 5689 5685 5690 5712 5714 5721 5725 5700 5699 5698 5685 5667 5688 5689 5699 5712 5716 5719 5715 5716 5714 5710 5703
5546 5563 5589 5600 5604 5610 5627 5635 5654 5666 5674 5675 5664 5667 5667 5677 5682 5686 5683 5694 5698 5704 5711 5695 5687 5700 5701 5714 5709 5715 5704 5691 5692 5669 5668 5679 5682 5707 5711 5714 5707 5704 5705 5704 5696
5541 5573 5586 5592 5601 5612 5625 5638 5649 5666 5676 5669 5661 5661 5664 5673 5680 5680 5681 5687 5697 5694 5703 5704 5692 5686 5698 5696 5701 5693 5695 5682 5685 5678 5681 5674 5685 5688 5696 5700 5704 5705 5699 5695 5691
5541 5582 5579 5587 5606 5611 5626 5636 5651 5659 5667 5665 5666 5663 5665 5665 5668 5676 5675 5684 5696 5698 5690 5684 5688 5681 5684 5689 5693 5695 5696 5697 5688 5665 5661 5674 5682 5672 5675 5681 5686 5693 5691 5691 5687
5547 5567 5581 5589 5607 5612 5622 5634 5646 5651 5654 5658 5659 5665 5666 5663 5659 5665 5670 5681 5691 5690 5682 5682 5661 5659 5664 5675 5682 5682 5674 5674 5672 5675 5661 5672 5674 5663 5665 5667 5668 5671 5676 5679 5677
5557 5581 5585 5594 5598 5609 5612 5621 5636 5650 5652 5658 5658 5663 5662 5662 5666 5661 5662 5668 5678 5675 5675 5673 5651 5648 5651 5674 5680 5670 5669 5669 5679 5669 5660 5666 5666 5655 5649 5649 5650 5653 5659 5665 5664
5563 5563 5564 5578 5595 5604 5613 5618 5631 5638 5647 5650 5653 5659 5658 5651 5656 5659 5668 5664 5666 5667 5667 5664 5653 5658 5652 5658 5664 5665 5662 5663 5668 5662 5666 5664 5660 5635 5629 5631 5630 5632 5638 5641 5641
5557 5558 5566 5579 5593 5602 5605 5609 5621 5631 5639 5643 5646 5646 5651 5646 5650 5654 5663 5666 5668 5665 5664 5660 5642 5653 5640 5646 5654 5646 5645 5648 5650 5646 5650 5646 5635 5618 5617 5620 5619 5616 5620 5622 5623
5548 5554 5561 5576 5580 5587 5593 5606 5612 5628 5634 5634 5641 5642 5639 5637 5646 5648 5648 5648 5653 5663 5650 5648 5636 5632 5620 5625 5630 5627 5618 5625 5624 5625 5625 5632 5614 5603 5604 5603 5602 5602 5600 5601 5604